Date String (YYYY-MM-DD hh:mm:ss) UTC,Instrument flags,Ambient pressure (hPa),Sample flow (lpm),Bypass flow (lpm),Sample temperature (°C),Ambient temperature (°C),ASC tube jacket temperature (°C),LED temperature (°C),Box temperature (°C),Sample RH (%),Span deviation,Mass concentration (μg/m³),Mass concentration (μg/m³),Mass concentration (μg/m³)
DateTimeUTC,F1_M11,P_M11,Q1_M11,Q2_M11,T1_M11,T2_M11,T3_M11,T4_M11,T5_M11,U1_M11,ZSPAN_M11,X0_M11,X2_M11,X1_M11
2022-06-06 19:00:00,,0822.5,5.01,0.00,29.3,28.3,00.0,38.1,31.3,25.2,0000.0,0011.52,0004.34,0002.94
2022-06-06 19:01:00,,0822.5,5.00,0.00,29.3,28.4,00.0,38.1,31.3,25.1,0000.0,0012.19,0004.33,0002.87
2022-06-06 19:02:00,,0822.5,4.99,0.00,29.4,28.5,00.0,38.1,31.4,25.7,0000.0,0012.37,0004.29,0002.83
2022-06-06 19:03:00,,0822.5,5.01,0.00,29.4,28.6,00.0,38.1,31.4,25.5,0000.0,0012.21,0004.23,0002.79
2022-06-06 19:04:00,,0822.5,4.99,0.00,29.4,28.5,00.0,38.1,31.4,25.0,0000.0,0012.13,0004.21,0002.75
2022-06-06 19:05:00,,0822.5,5.01,0.00,29.4,27.6,00.0,38.1,31.2,24.9,0000.0,0011.68,0004.11,0002.70
2022-06-06 19:06:00,,0822.5,4.99,0.00,29.3,27.0,00.0,38.0,31.0,25.0,0000.0,0011.64,0004.04,0002.65
2022-06-06 19:07:00,,0822.5,5.00,0.00,29.3,26.9,00.0,38.0,31.0,25.6,0000.0,0011.79,0004.01,0002.58
2022-06-06 19:08:00,,0822.5,5.00,0.00,29.2,27.0,00.0,38.0,30.9,26.0,0000.0,0011.58,0003.98,0002.53
2022-06-06 19:09:00,,0822.4,4.99,0.00,29.1,27.1,00.0,38.0,30.9,25.3,0000.0,0010.97,0003.97,0002.48
2022-06-06 19:10:00,,0822.4,5.01,0.00,29.1,27.3,00.0,38.0,31.0,25.3,0000.0,0010.72,0003.91,0002.41
2022-06-06 19:11:00,,0822.4,5.00,0.00,29.1,27.5,00.0,38.0,31.0,26.7,0000.0,0011.07,0003.91,0002.37
2022-06-06 19:12:00,,0822.5,5.00,0.00,29.1,27.7,00.0,38.0,31.1,26.3,0000.0,0010.54,0003.84,0002.31
2022-06-06 19:13:00,,0822.4,4.99,0.00,29.2,27.8,00.0,38.0,31.1,24.0,0000.0,0010.15,0003.79,0002.26
2022-06-06 19:14:00,,0822.4,5.01,0.00,29.2,28.0,00.0,38.0,31.1,24.4,0000.0,0010.12,0003.74,0002.19
2022-06-06 19:15:00,,0822.4,5.00,0.00,29.2,28.1,00.0,38.0,31.2,23.9,0000.0,0009.99,0003.68,0002.12
2022-06-06 19:16:00,,0822.4,5.00,0.00,29.3,28.2,00.0,38.1,31.2,23.4,0000.0,0009.98,0003.64,0002.07
2022-06-06 19:17:00,,0822.3,4.98,0.00,29.3,28.3,00.0,38.1,31.3,23.5,0000.0,0010.15,0003.60,0002.01
2022-06-06 19:18:00,,0822.4,5.01,0.00,29.3,28.4,00.0,38.1,31.3,24.0,0000.0,0010.18,0003.52,0001.94
2022-06-06 19:19:00,,0822.3,5.01,0.00,29.4,28.5,00.0,38.1,31.4,24.9,0000.0,0010.23,0003.53,0001.90
2022-06-06 19:20:00,,0822.3,4.99,0.00,29.4,28.6,00.0,38.1,31.4,25.0,0000.0,0010.63,0003.51,0001.90
2022-06-06 19:21:00,,0822.3,5.00,0.00,29.4,28.2,00.0,38.1,31.3,24.2,0000.0,0010.85,0003.49,0001.89
2022-06-06 19:22:00,,0822.3,5.00,0.00,29.3,27.3,00.0,38.0,31.1,25.2,0000.0,0010.30,0003.43,0001.86
2022-06-06 19:23:00,,0822.3,5.00,0.00,29.3,27.0,00.0,38.0,31.0,24.3,0000.0,0010.20,0003.43,0001.87
2022-06-06 19:24:00,,0822.2,4.99,0.00,29.2,27.0,00.0,38.0,30.9,25.3,0000.0,0010.09,0003.41,0001.86
2022-06-06 19:25:00,,0822.1,5.00,0.00,29.1,27.1,00.0,38.0,30.9,24.6,0000.0,0010.39,0003.44,0001.88
2022-06-06 19:26:00,,0822.1,5.00,0.00,29.1,27.2,00.0,38.0,30.9,24.7,0000.0,0010.57,0003.52,0001.93
2022-06-06 19:27:00,,0822.1,4.99,0.00,29.1,27.4,00.0,38.0,31.0,25.9,0000.0,0010.66,0003.56,0001.96
2022-06-06 19:28:00,,0822.1,5.00,0.00,29.1,27.6,00.0,38.0,31.0,25.2,0000.0,0010.45,0003.57,0001.97
2022-06-06 19:29:00,,0822.0,5.01,0.00,29.1,27.7,00.0,38.0,31.1,24.2,0000.0,0009.45,0003.60,0002.01
2022-06-06 19:30:00,,0822.0,4.99,0.00,29.2,27.9,00.0,38.0,31.1,24.9,0000.0,0009.44,0003.64,0002.04
2022-06-06 19:31:00,,0822.0,5.00,0.00,29.2,28.0,00.0,38.0,31.2,26.7,0000.0,0009.19,0003.65,0002.03
2022-06-06 19:32:00,,0822.0,5.01,0.00,29.2,28.1,00.0,38.0,31.2,26.1,0000.0,0008.59,0003.65,0002.05
2022-06-06 19:33:00,,0821.9,5.00,0.00,29.3,28.3,00.0,38.0,31.2,24.2,0000.0,0008.67,0003.66,0002.06
2022-06-06 19:34:00,,0821.9,4.99,0.00,29.3,28.4,00.0,38.1,31.3,23.2,0000.0,0009.42,0003.67,0002.07
2022-06-06 19:35:00,,0821.8,5.01,0.00,29.3,28.4,00.0,38.1,31.3,23.1,0000.0,0009.58,0003.72,0002.09
2022-06-06 19:36:00,,0821.8,5.00,0.00,29.4,28.5,00.0,38.1,31.4,23.6,0000.0,0009.42,0003.74,0002.08
2022-06-06 19:37:00,,0822.1,4.99,0.00,29.4,28.6,00.0,38.1,31.4,23.2,0000.0,0009.19,0003.66,0002.04
2022-06-06 19:38:00,,0821.7,5.00,0.00,29.4,28.2,00.0,38.1,31.3,23.2,0000.0,0009.05,0003.61,0002.03
2022-06-06 19:39:00,,0821.9,5.01,0.00,29.3,27.2,00.0,38.0,31.1,24.5,0000.0,0009.05,0003.62,0002.05
2022-06-06 19:40:00,,0821.9,4.99,0.00,29.3,26.8,00.0,38.0,30.9,24.5,0000.0,0009.00,0003.60,0002.05
2022-06-06 19:41:00,,0821.8,5.01,0.00,29.2,26.8,00.0,38.0,30.9,24.3,0000.0,0009.31,0003.56,0002.03
2022-06-06 19:42:00,,0821.8,4.99,0.00,29.1,26.9,00.0,38.0,30.9,23.9,0000.0,0009.30,0003.53,0002.03
2022-06-06 19:43:00,,0821.8,4.99,0.00,29.1,27.1,00.0,38.0,30.9,24.5,0000.0,0009.29,0003.53,0002.03
2022-06-06 19:44:00,,0821.8,5.01,0.00,29.1,27.3,00.0,38.0,30.9,24.7,0000.0,0009.86,0003.56,0002.04
2022-06-06 19:45:00,,0821.8,4.99,0.00,29.1,27.5,00.0,38.0,31.0,25.3,0000.0,0009.37,0003.54,0002.03
2022-06-06 19:46:00,,0821.8,5.00,0.00,29.1,27.7,00.0,38.0,31.0,23.3,0000.0,0009.31,0003.54,0002.02
2022-06-06 19:47:00,,0821.8,5.00,0.00,29.1,27.8,00.0,38.0,31.1,23.0,0000.0,0009.42,0003.55,0002.00
2022-06-06 19:48:00,,0821.8,5.00,0.00,29.2,28.0,00.0,38.0,31.1,24.4,0000.0,0009.63,0003.60,0002.03
2022-06-06 19:49:00,,0821.8,4.99,0.00,29.2,28.1,00.0,38.0,31.2,23.4,0000.0,0009.85,0003.70,0002.04
2022-06-06 19:50:00,,0821.8,5.00,0.00,29.2,28.2,00.0,38.0,31.2,23.8,0000.0,0009.92,0003.73,0002.03
2022-06-06 19:51:00,,0821.8,5.00,0.00,29.3,28.3,00.0,38.0,31.3,23.4,0000.0,0010.33,0003.74,0002.02
2022-06-06 19:52:00,,0821.8,5.00,0.00,29.3,28.4,00.0,38.1,31.3,24.5,0000.0,0010.79,0003.77,0002.05
2022-06-06 19:53:00,,0821.8,5.00,0.00,29.3,28.5,00.0,38.1,31.3,24.2,0000.0,0010.88,0003.79,0002.08
2022-06-06 19:54:00,,0821.8,4.99,0.00,29.4,28.6,00.0,38.1,31.4,23.4,0000.0,0010.80,0003.79,0002.09
2022-06-06 19:55:00,,0821.8,5.00,0.00,29.4,28.2,00.0,38.1,31.3,25.4,0000.0,0010.38,0003.79,0002.13
2022-06-06 19:56:00,,0821.8,5.01,0.00,29.3,27.3,00.0,38.0,31.1,23.9,0000.0,0010.31,0003.86,0002.20
2022-06-06 19:57:00,,0821.8,4.98,0.00,29.2,26.9,00.0,38.0,30.9,23.9,0000.0,0010.48,0003.88,0002.25
2022-06-06 19:58:00,,0821.9,5.01,0.00,29.2,26.9,00.0,38.0,30.9,23.7,0000.0,0010.50,0003.90,0002.31
2022-06-06 19:59:00,,0821.9,5.00,0.00,29.1,27.0,00.0,38.0,30.9,25.1,0000.0,0010.60,0003.94,0002.35
